NOAA 16 DEB, 41273

Orbit data source: Space-Track

NOAA 16 DEB, 41273 is space debris in SSO originally from a launch on Thu, 21 Sep 2000 UTC launched from the Air Force Western Test Range (AFWTR). Debris objects in space refer to the collection of defunct objects orbiting the Earth. Examples of debris include non-operational satellites, rocket bodies, and fragments generated from explosions, collisions, or faulty payload assembly.

Loading next visibility...
Identifier
41273, 2000-055FZ
Orbit
SSO
Country
Flag of USUS
Related business
Manufacturer
Unknown
Mission
Spacecraft
Bus & Motor
Unknown
Mass
Unknown
Launch date (UTC)
2000-09-21 (25 years ago)
Launch vehicle
Unknown
Launch site
Air Force Western Test Range (AFWTR)
Object type
Payload
Rocket body
Debris
Shape & HBR
Unknown shape, 0.1 m
Radar Cross Section
Small (<0.1 m²)

Expand to show TLE details & history
Last TLE update: 3 days ago

TLE from 3 days ago
0 NOAA 16 DEB
1 41273U 00055FZ  25300.60132531  .00019791  00000-0  33543-2 0  9995
2 41273  98.9293 175.0936 0036073 297.3025  62.4506 14.68861165516075
Epoch: 2025-10-27T14:25Z
TLE epoch observation values (Epoch: 2025-10-27T14:25:54.506Z)
Latitude
-0.00006°
Longitude
-77.58433°
Altitude
655.999 km
Speed
7.536 km/s
True Right ascension
11h 40m 22s
True Declination
0° 00' 00"
Sunlit
Object was in daylight at epoch
Visualization orbit readout
Latitude
Unknown
Longitude
Unknown
Altitude
Unknown
Speed
Unknown
Apparent Right ascension
Unknown
Apparent Declination
Unknown
Sunlit
N/A
Visualization observer readout
Local Sidereal Time
10:51:36
Azimuth
Unknown
Elevation
Unknown
Doppler factor
Unknown
Orbital elements
Apogee altitude
687.206 km
Perigee altitude
636.415 km
Semi-major axis
7,039.947 km
Eccentricity
0.00361
Inclination
98.9293°
RAAN
175.0936°
Arg. of periapsis
297.3025°
True anomaly
62.81786°
Mean anomaly
62.4506°
Eccentric anomaly
62.63415°
Mean motion
3.67442 °/min
Orbital period
97.97 mins
BSTAR
0.0033543
Loading maneuver chart data...
Computing Atmospheric mass density...
Loading historical data...
Loading historical data...
Loading historical data...
Loading historical data...
Loading historical data...
Loading historical data...
Loading historical data...

Documentation

Showing up to 5 results
|